Flag for Canada Weather past 2 weeks in Toronto, Ontario, Canada

Now
54 °F

Clear.


Feels Like: 53 °F
Forecast: 40 / 62 °F
Wind: 5 mph from Northwest

Location: Toronto Pearson International Airport

Current Time: Apr 18, 2015 at 1:05:18 AM

Latest Report: Apr 18, 2015 at 12:00 AM


Visibility: 15 mi

Pressure: 29.99 "Hg

Humidity: 58%

Dew point: 39 °F

Location of TorontoLocation

Historic Weather in Toronto — Graph

°F

Toronto temperature yesterday

Maximum temperature yesterday: 72 °F (at 4:00 PM)
Minimum temperature yesterday: 46 °F (at 1:00 AM)
Average temperature yesterday: 58 °F

Past Weeks' High & Low Weather Summary

 TemperatureHumidityPressure
High73 °F (Apr 13, 5:00 PM)100% (Apr 3, 6:00 AM)30.42 "Hg (Apr 3, 6:00 AM)
Low27 °F (Apr 5, 3:00 AM)19% (Apr 14, 3:00 PM)29.43 "Hg (Apr 10, 10:00 AM)
Average45 °F64%30.09 "Hg
* Reported Midnight between Apr 2 and Apr 3 — Midnight between Apr 17 and Apr 18, Toronto, Weather by CustomWeather, © 2015

Note: Actual official high and low records may vary slightly from our data, if they occured in-between our weather recording intervals... More about our weather records

Advertising

Toronto weather history for previous 24 hours

 ConditionsComfort  
Time TempWeatherWind HumidityBarometerVisibility
12:00 AM
Sat, Apr 18
54 °FClear.5 mph58%29.99 "Hg15 mi
11:00 PM
Fri, Apr 17
57 °FClear.6 mph51%30.00 "Hg15 mi
10:00 PM57 °FClear.7 mph51%30.01 "Hg15 mi
9:00 PM63 °FPassing clouds.12 mph42%30.00 "Hg15 mi
8:00 PM64 °FPassing clouds.14 mph40%29.98 "Hg15 mi
7:00 PM68 °FPassing clouds.13 mph35%29.95 "Hg15 mi
6:00 PM70 °FPassing clouds.14 mph31%29.95 "Hg15 mi
5:00 PM72 °FPassing clouds.16 mph31%29.94 "Hg15 mi
4:00 PM72 °FPassing clouds.14 mph31%29.95 "Hg15 mi
3:00 PM70 °FScattered clouds.15 mph35%29.97 "Hg15 mi
2:00 PM66 °FScattered clouds.12 mph52%29.99 "Hg12 mi
1:00 PM63 °FBroken clouds.10 mph64%30.01 "Hg15 mi
12:00 PM63 °FBroken clouds.3 mph64%30.02 "Hg10 mi
11:00 AM59 °FBroken clouds.3 mph68%30.02 "Hg8 mi
10:00 AM57 °FPartly sunny.2 mph72%30.02 "Hg8 mi
9:00 AM54 °FBroken clouds.5 mph88%30.02 "Hg6 mi
8:00 AM50 °FFog.5 mph94%30.03 "Hg6 mi
7:00 AM48 °FFog.3 mph94%30.01 "Hg6 mi
6:00 AM50 °FMostly cloudy.3 mph94%30.01 "Hg10 mi
5:00 AM48 °FOvercast.3 mph94%30.00 "Hg8 mi
4:00 AM46 °FFog.2 mph100%30.01 "Hg4 mi
3:00 AM46 °FFog.2 mph93%30.02 "Hg3 mi
2:00 AM46 °FFog.6 mph93%30.03 "Hg4 mi
1:00 AM46 °FMostly cloudy.5 mph93%30.06 "Hg12 mi
Weather by CustomWeather, © 2015

See weather overviewHow to use our weather pages